#timestamp,LO_Frequency,Hit,StdDev 
1521241215.8,286047002.6,N
1521241235.6,286047002.1,N
1521241255.4,286047000.0,N
1521241275.3,286047000.6,N
1521241295.1,286046999.3,N
1521241315.8,286046999.4,N
1521241335.7,286046998.5,N
1521241355.5,286046998.4,N
1521241375.4,286047002.6,N
1521241395.2,286046999.7,N
1521241415.0,286047000.9,N
1521241415.9,286047000.9,N
1521241435.8,286047000.6,N
1521241455.6,286046998.6,N
1521241475.5,286047000.6,N
1521241495.3,286047003.8,N
1521241515.1,286047003.6,N
1521241535.9,286047003.6,N
1521241555.7,286047001.9,N
1521241575.5,286047002.7,N
1521241595.4,286047002.2,N
1521241615.2,286047002.1,N
1521241635.1,286047002.4,N
1521241636.0,286047002.4,N
1521241655.8,286047000.4,N
1521241675.6,286047001.5,N
1521241695.5,286047002.7,N
1521241715.3,286046999.8,N
1521241735.1,286046999.9,N
1521241755.9,286047002.7,N
1521241775.7,286047000.2,N
1521241795.6,286047000.5,N
1521241815.4,286047002.3,N
1521241835.2,286047002.4,N
1521241855.1,286046999.7,N
1521241856.0,286046999.7,N
1521241875.8,286047002.4,N
1521241895.7,286047001.5,N
1521241915.5,286047002.0,N
1521241935.3,286047002.1,N
1521241955.2,286047000.1,N
1521241975.9,286046999.8,N
1521241995.7,286047001.8,N
1521242015.6,286047001.3,N
1521242035.4,286047006.3,Y
1521242055.3,286047007.6,P
1521242075.1,286047007.2,N
1521242095.8,286047004.2,N
1521242115.7,286047004.1,N
1521242135.5,286047002.6,N
1521242155.3,286047000.2,N
1521242175.2,286047000.8,N
1521242195.0,286046997.0,N
1521242195.9,286046997.0,N
1521242215.8,286046999.5,N
1521242235.6,286047000.7,N
1521242255.4,286046999.8,N
1521242275.3,286047001.0,N
1521242295.1,286046999.0,N
1521242315.9,286046999.9,N
1521242335.7,286047000.5,N
1521242355.5,286047000.5,N
1521242375.4,286047002.7,N
1521242395.2,286047002.3,N
1521242415.0,286047000.9,N
1521242416.0,286047000.9,N
1521242435.8,286047000.2,N
1521242455.6,286047001.0,N
1521242475.5,286046998.1,N
1521242495.3,286046998.6,N
1521242515.2,286047001.0,N
1521242535.9,286047000.8,N
1521242555.7,286047000.4,N
1521242575.6,286047000.4,N
1521242595.4,286046998.2,N
1521242615.3,286046998.1,N
1521242635.1,286046998.6,N
1521242655.8,286046998.4,N
1521242675.7,286046999.9,N
1521242695.5,286047002.4,N
1521242715.4,286046998.5,N
1521242735.2,286046998.8,N
1521242755.0,286046999.1,N
1521242755.9,286046999.1,N
1521242775.8,286046997.4,N
1521242795.6,286046998.4,N
1521242815.5,286046996.6,N
1521242835.3,286046998.4,N
1521242855.1,286047000.8,N
1521242875.9,286046998.7,N
1521242895.7,286047001.1,N
1521242915.5,286046996.5,N
1521242935.4,286047001.1,N
1521242955.2,286047001.2,N
1521242975.1,286046999.4,N
1521242976.0,286046999.4,N
1521242995.8,286046999.2,N
1521243015.6,286047000.8,N
1521243035.5,286046999.7,N
1521243055.3,286047001.9,N
1521243075.2,286047002.6,N
1521243095.0,286047001.1,N
1521243095.9,286047001.1,N
1521243115.7,286046999.4,N
1521243135.6,286047000.8,N
1521243155.4,286047000.5,N
1521243175.3,286046998.4,N
1521243195.1,286046998.9,N
1521243196.0,286046998.9,N
1521243215.8,286046998.6,N
1521243235.7,286047000.5,N
1521243255.5,286046998.5,N
1521243275.4,286047000.1,N
1521243295.2,286047002.6,N
1521243315.0,286047002.6,N
1521243315.9,286047002.6,N
1521243335.8,286046999.6,N
1521243355.6,286047002.7,N
1521243375.5,286046998.7,N
1521243395.3,286046998.9,N
1521243415.1,286046998.4,N
1521243435.9,286046998.3,N
1521243455.7,286046999.4,N
1521243475.6,286046998.4,N
1521243495.4,286047000.8,N
1521243515.2,286047002.3,N
1521243535.1,286047000.6,N
1521243536.0,286047000.6,N
1521243555.8,286047000.5,N
1521243575.7,286047000.2,N
1521243595.5,286046998.8,N
1521243615.3,286046998.9,N
1521243635.2,286046997.0,N
1521243655.0,286046999.5,N
1521243655.9,286046999.5,N
1521243675.7,286046998.4,N
1521243695.6,286046998.1,N
1521243715.4,286046996.5,N
1521243735.3,286046999.1,N
1521243755.1,286046997.8,N
1521243756.0,286046997.8,N
1521243775.8,286046996.9,N
1521243795.7,286046999.6,N
1521243815.5,286046996.7,N
1521243835.4,286046999.1,N
1521243855.2,286046999.2,N
1521243875.0,286047000.8,N
1521243875.9,286047000.8,N
1521243895.8,286046998.5,N
1521243915.6,286046999.8,N
1521243935.4,286046998.2,N
1521243955.3,286046997.1,N
1521243975.1,286046998.2,N
1521243995.9,286047001.8,N
1521244015.7,286047001.6,N
1521244035.5,286047001.9,N
1521244055.4,286047002.6,N
1521244075.2,286047000.8,N
1521244095.0,286046998.3,N
1521244095.9,286046998.3,N
1521244115.8,286046999.2,N
1521244135.6,286046998.9,N
1521244155.5,286046996.8,N
1521244175.3,286046994.9,Y
1521244195.1,286046999.0,P
1521244215.9,286046998.7,P
1521244235.7,286046998.4,P
1521244255.6,286047000.1,N
1521244275.4,286047003.7,Y
1521244295.2,286047004.2,P
1521244315.1,286047001.9,N
1521244316.0,286047001.9,N
1521244335.8,286047000.1,N
1521244355.7,286047001.3,N
1521244375.5,286047005.3,Y
1521244395.3,286047002.2,P
1521244415.2,286047002.4,P
1521244435.0,286047001.6,P
1521244435.9,286047001.6,Y
1521244455.8,286047001.0,P
1521244475.6,286046996.5,P
1521244495.4,286046996.8,N
1521244515.3,286046999.6,N
1521244535.1,286046998.6,N
1521244555.9,286046999.8,N
1521244575.7,286047000.3,N
1521244595.5,286047000.7,N
1521244615.4,286047001.1,N
1521244635.2,286046998.5,N
1521244655.0,286047001.2,N
1521244655.9,286047001.2,N
1521244675.8,286046998.6,N
1521244695.6,286046998.7,N
1521244715.5,286046999.3,N
1521244735.3,286046998.4,N
1521244755.1,286046998.9,N
1521244775.9,286046997.4,N
1521244795.7,286046999.1,N
